DLH88Y EDDF-LWSK

Flight info

Callsign DLH88Y
Flight time 1h 52m
Altitude 39000
Route CINDY8S/18 CINDY Z74 LAMPU DCT NOMBO Y161 MAH DCT VAVOR DCT RADIZ DCT KUSIB DCT MEDUX UM867 KOGAT
Aircraft A320/M-SDE2E3FGIJ1LORWXYZ/HB1

Departure

Time 2026-05-08 07:42
Airport Frankfurt Main Airport (EDDF)

Arrival

Time 2026-05-08 09:34
Airport Skopje International Airport (LWSK)
Time Latitude Longitude Altitude Speed Heading
2026-05-08 07:13 50.04687 8.56701 363 ft 0 kts 115°
2026-05-08 07:31 50.04694 8.56676 359 ft 4 kts 115°
2026-05-08 07:32 50.04703 8.56644 359 ft 4 kts 130°
2026-05-08 07:32 50.04723 8.56633 360 ft 4 kts 194°
2026-05-08 07:32 50.04747 8.56646 361 ft 4 kts 205°
2026-05-08 07:32 50.04771 8.56666 363 ft 4 kts 207°
2026-05-08 07:33 50.04780 8.56672 362 ft 0 kts 205°
2026-05-08 07:34 50.04779 8.56672 363 ft 2 kts 205°
2026-05-08 07:35 50.04735 8.56615 360 ft 14 kts 230°
2026-05-08 07:35 50.04677 8.56476 360 ft 15 kts 248°
2026-05-08 07:35 50.04642 8.56332 358 ft 13 kts 250°
2026-05-08 07:35 50.04611 8.56200 362 ft 14 kts 250°
2026-05-08 07:36 50.04557 8.55994 363 ft 25 kts 234°
2026-05-08 07:36 50.04407 8.55914 356 ft 22 kts 178°
2026-05-08 07:36 50.04283 8.55959 359 ft 16 kts 181°
2026-05-08 07:36 50.04180 8.55922 353 ft 14 kts 172°
2026-05-08 07:37 50.04120 8.55956 358 ft 6 kts 159°
2026-05-08 07:37 50.04059 8.55956 360 ft 14 kts 210°
2026-05-08 07:37 50.04013 8.55788 352 ft 21 kts 249°
2026-05-08 07:37 50.03959 8.55571 351 ft 22 kts 251°
2026-05-08 07:38 50.03906 8.55350 357 ft 22 kts 251°
2026-05-08 07:38 50.03851 8.55122 356 ft 23 kts 250°
2026-05-08 07:38 50.03792 8.54877 355 ft 25 kts 250°
2026-05-08 07:38 50.03727 8.54606 349 ft 28 kts 249°
2026-05-08 07:39 50.03656 8.54302 347 ft 31 kts 250°
2026-05-08 07:39 50.03605 8.54095 351 ft 30 kts 249°
2026-05-08 07:39 50.03529 8.53778 336 ft 30 kts 249°
2026-05-08 07:39 50.03458 8.53484 335 ft 28 kts 250°
2026-05-08 07:40 50.03387 8.53185 334 ft 31 kts 249°
2026-05-08 07:40 50.03322 8.52918 335 ft 21 kts 250°
2026-05-08 07:40 50.03275 8.52723 331 ft 16 kts 249°
2026-05-08 07:40 50.03221 8.52600 331 ft 13 kts 200°
2026-05-08 07:41 50.03179 8.52596 335 ft 0 kts 180°
2026-05-08 07:41 50.03011 8.52599 332 ft 64 kts 179°
2026-05-08 07:42 50.02320 8.52605 331 ft 131 kts 179°
2026-05-08 07:42 50.01236 8.52632 400 ft 174 kts 176°
2026-05-08 07:42 50.00033 8.52642 1123 ft 173 kts 178°
2026-05-08 07:42 49.98821 8.52660 1940 ft 175 kts 178°
2026-05-08 07:43 49.97556 8.52776 2406 ft 192 kts 170°
2026-05-08 07:43 49.96309 8.53691 2749 ft 210 kts 134°
2026-05-08 07:43 49.95534 8.55622 3365 ft 215 kts 116°
2026-05-08 07:43 49.94820 8.57748 3909 ft 229 kts 118°
2026-05-08 07:44 49.94171 8.60023 4738 ft 233 kts 103°
2026-05-08 07:44 49.93963 8.62636 5264 ft 257 kts 94°
2026-05-08 07:44 49.93800 8.65480 5984 ft 270 kts 102°
2026-05-08 07:44 49.93090 8.68189 6842 ft 276 kts 119°
2026-05-08 07:45 49.92157 8.70813 7735 ft 280 kts 120°
2026-05-08 07:45 49.91225 8.73387 8600 ft 285 kts 120°
2026-05-08 07:45 49.90244 8.76081 9507 ft 289 kts 120°
2026-05-08 07:45 49.89239 8.78833 10356 ft 296 kts 120°
2026-05-08 07:46 49.88186 8.81714 10696 ft 320 kts 120°
2026-05-08 07:46 49.87066 8.84799 11191 ft 335 kts 120°
2026-05-08 07:46 49.85906 8.87975 11952 ft 340 kts 122°
2026-05-08 07:46 49.84402 8.90817 12731 ft 344 kts 135°
2026-05-08 07:47 49.82714 8.93452 13541 ft 347 kts 136°
2026-05-08 07:47 49.80995 8.96109 14293 ft 351 kts 136°
2026-05-08 07:47 49.79269 8.98760 14953 ft 356 kts 136°
2026-05-08 07:47 49.77501 9.01469 15620 ft 360 kts 136°
2026-05-08 07:48 49.75721 9.04206 16302 ft 364 kts 136°
2026-05-08 07:48 49.73905 9.07002 16977 ft 369 kts 136°
2026-05-08 07:48 49.72076 9.09816 17647 ft 373 kts 136°
2026-05-08 07:48 49.70224 9.12660 18305 ft 378 kts 137°
2026-05-08 07:49 49.68351 9.15537 18882 ft 382 kts 137°
2026-05-08 07:49 49.66454 9.18445 19470 ft 385 kts 137°
2026-05-08 07:49 49.64543 9.21367 20050 ft 389 kts 137°
2026-05-08 07:49 49.62616 9.24312 20637 ft 392 kts 137°
2026-05-08 07:50 49.60672 9.27283 21205 ft 395 kts 137°
2026-05-08 07:50 49.58710 9.30277 21761 ft 399 kts 137°
2026-05-08 07:50 49.56726 9.33297 22308 ft 402 kts 137°
2026-05-08 07:50 49.54729 9.36332 22846 ft 405 kts 137°
2026-05-08 07:51 49.52716 9.39388 23394 ft 408 kts 137°
2026-05-08 07:51 49.50687 9.42468 23880 ft 411 kts 137°
2026-05-08 07:51 49.48643 9.45567 24327 ft 414 kts 137°
2026-05-08 07:51 49.46578 9.48691 24766 ft 417 kts 137°
2026-05-08 07:52 49.44505 9.51823 25209 ft 419 kts 137°
2026-05-08 07:52 49.42420 9.54971 25645 ft 422 kts 137°
2026-05-08 07:52 49.40320 9.58136 26074 ft 424 kts 137°
2026-05-08 07:52 49.38207 9.61316 26499 ft 427 kts 138°
2026-05-08 07:53 49.36082 9.64509 26923 ft 429 kts 138°
2026-05-08 07:53 49.33937 9.67727 27334 ft 432 kts 138°
2026-05-08 07:53 49.31787 9.70956 27742 ft 434 kts 138°
2026-05-08 07:53 49.29626 9.74203 28156 ft 437 kts 138°
2026-05-08 07:54 49.27450 9.77465 28553 ft 439 kts 138°
2026-05-08 07:54 49.25261 9.80743 28951 ft 442 kts 138°
2026-05-08 07:54 49.23044 9.84051 29340 ft 444 kts 138°
2026-05-08 07:54 49.20825 9.87354 29713 ft 447 kts 139°
2026-05-08 07:55 49.18591 9.90671 30094 ft 449 kts 139°
2026-05-08 07:55 49.16345 9.94008 30410 ft 451 kts 139°
2026-05-08 07:55 49.14087 9.97361 30725 ft 453 kts 139°
2026-05-08 07:55 49.11819 10.00726 31002 ft 455 kts 139°
2026-05-08 07:56 49.09541 10.04096 31289 ft 457 kts 139°
2026-05-08 07:56 49.07253 10.07479 31572 ft 459 kts 139°
2026-05-08 07:56 49.04961 10.10850 31887 ft 460 kts 139°
2026-05-08 07:56 49.02627 10.14203 32318 ft 458 kts 140°
2026-05-08 07:57 49.00303 10.17483 32747 ft 456 kts 141°
2026-05-08 07:57 48.97967 10.20743 33170 ft 455 kts 141°
2026-05-08 07:57 48.95631 10.24000 33595 ft 454 kts 141°
2026-05-08 07:57 48.93315 10.27242 34024 ft 452 kts 141°
2026-05-08 07:58 48.91006 10.30486 34400 ft 451 kts 140°
2026-05-08 07:58 48.88709 10.33718 34733 ft 451 kts 140°
2026-05-08 07:58 48.86414 10.36953 35042 ft 451 kts 140°
2026-05-08 07:58 48.84118 10.40188 35336 ft 451 kts 140°
2026-05-08 07:59 48.81833 10.43463 35602 ft 451 kts 139°
2026-05-08 07:59 48.79622 10.46850 35886 ft 452 kts 137°
2026-05-08 07:59 48.77465 10.50327 36137 ft 453 kts 136°
2026-05-08 07:59 48.75335 10.53843 36395 ft 453 kts 135°
2026-05-08 08:00 48.73208 10.57367 36646 ft 453 kts 136°
2026-05-08 08:00 48.71063 10.60884 36913 ft 453 kts 136°
2026-05-08 08:00 48.68908 10.64361 37162 ft 453 kts 136°
2026-05-08 08:00 48.66738 10.67814 37407 ft 453 kts 137°
2026-05-08 08:01 48.64562 10.71256 37638 ft 453 kts 137°
2026-05-08 08:01 48.62381 10.74691 37877 ft 453 kts 137°
2026-05-08 08:01 48.60193 10.78135 38103 ft 453 kts 137°
2026-05-08 08:01 48.58013 10.81568 38334 ft 453 kts 137°
2026-05-08 08:02 48.55841 10.85019 38565 ft 453 kts 136°
2026-05-08 08:02 48.53680 10.88483 38773 ft 454 kts 136°
2026-05-08 08:02 48.51514 10.91966 38939 ft 454 kts 136°
2026-05-08 08:02 48.49415 10.95340 39066 ft 455 kts 136°
2026-05-08 08:03 48.47240 10.98799 39104 ft 455 kts 137°
2026-05-08 08:03 48.42840 11.05662 39111 ft 455 kts 137°
2026-05-08 08:04 48.38456 11.12443 39119 ft 455 kts 137°
2026-05-08 08:04 48.34048 11.19253 39115 ft 455 kts 137°
2026-05-08 08:05 48.29648 11.26074 39105 ft 455 kts 137°
2026-05-08 08:05 48.25539 11.33313 39111 ft 459 kts 124°
2026-05-08 08:06 48.22332 11.41612 39110 ft 460 kts 122°
2026-05-08 08:06 48.19126 11.49915 39109 ft 461 kts 123°
2026-05-08 08:07 48.15899 11.58217 39111 ft 461 kts 123°
2026-05-08 08:07 48.12671 11.66498 39111 ft 461 kts 123°
2026-05-08 08:08 48.09438 11.74784 39107 ft 461 kts 123°
2026-05-08 08:08 48.06199 11.83047 39109 ft 461 kts 123°
2026-05-08 08:09 48.02958 11.91299 39107 ft 461 kts 123°
2026-05-08 08:09 47.99707 11.99553 39103 ft 460 kts 123°
2026-05-08 08:10 47.96455 12.07782 39104 ft 461 kts 123°
2026-05-08 08:10 47.92899 12.15691 39102 ft 456 kts 135°
2026-05-08 08:11 47.88327 12.21852 39102 ft 453 kts 143°
2026-05-08 08:11 47.83492 12.27883 39103 ft 453 kts 143°
2026-05-08 08:12 47.78669 12.33918 39110 ft 453 kts 143°
2026-05-08 08:12 47.73844 12.39951 39112 ft 454 kts 143°
2026-05-08 08:13 47.69004 12.45970 39107 ft 453 kts 143°
2026-05-08 08:13 47.64162 12.51955 39108 ft 453 kts 143°
2026-05-08 08:14 47.59801 12.58668 39103 ft 457 kts 134°
2026-05-08 08:14 47.55642 12.65772 39097 ft 456 kts 134°
2026-05-08 08:15 47.51475 12.72856 39095 ft 456 kts 134°
2026-05-08 08:15 47.47308 12.79907 39085 ft 456 kts 135°
2026-05-08 08:16 47.43102 12.87007 39083 ft 456 kts 135°
2026-05-08 08:16 47.38945 12.94011 39081 ft 456 kts 135°
2026-05-08 08:17 47.34764 13.01049 39086 ft 456 kts 135°
2026-05-08 08:17 47.30573 13.08084 39085 ft 456 kts 135°
2026-05-08 08:18 47.26383 13.15091 39079 ft 456 kts 135°
2026-05-08 08:18 47.22184 13.22085 39084 ft 457 kts 135°
2026-05-08 08:19 47.17975 13.29092 39095 ft 457 kts 135°
2026-05-08 08:19 47.13762 13.36068 39090 ft 456 kts 135°
2026-05-08 08:20 47.09606 13.42951 39099 ft 456 kts 135°
2026-05-08 08:20 47.05400 13.49905 39105 ft 456 kts 135°
2026-05-08 08:21 47.01192 13.56838 39107 ft 455 kts 135°
2026-05-08 08:21 46.96970 13.63762 39105 ft 455 kts 136°
2026-05-08 08:22 46.92746 13.70661 39106 ft 455 kts 136°
2026-05-08 08:22 46.88520 13.77567 39110 ft 455 kts 136°
2026-05-08 08:23 46.84298 13.84450 39112 ft 455 kts 136°
2026-05-08 08:23 46.80791 13.90155 39122 ft 454 kts 136°
2026-05-08 08:24 46.76567 13.97008 39129 ft 453 kts 136°
2026-05-08 08:24 46.72352 14.03835 39136 ft 453 kts 136°
2026-05-08 08:25 46.68127 14.10658 39136 ft 453 kts 136°
2026-05-08 08:25 46.63901 14.17454 39138 ft 453 kts 136°
2026-05-08 08:26 46.59674 14.24243 39134 ft 453 kts 136°
2026-05-08 08:26 46.55435 14.31037 39146 ft 453 kts 136°
2026-05-08 08:27 46.51193 14.37815 39135 ft 454 kts 136°
2026-05-08 08:27 46.46938 14.44599 39109 ft 454 kts 136°
2026-05-08 08:28 46.42676 14.51370 39114 ft 455 kts 136°
2026-05-08 08:28 46.38489 14.58005 39110 ft 455 kts 136°
2026-05-08 08:29 46.34178 14.64813 39111 ft 456 kts 136°
2026-05-08 08:29 46.29894 14.71583 39109 ft 456 kts 136°
2026-05-08 08:30 46.25629 14.78296 39108 ft 457 kts 137°
2026-05-08 08:30 46.19184 14.88418 39103 ft 456 kts 137°
2026-05-08 08:31 46.14878 14.95159 39108 ft 456 kts 137°
2026-05-08 08:31 46.10572 15.01874 39109 ft 456 kts 137°
2026-05-08 08:32 46.06256 15.08587 39112 ft 456 kts 137°
2026-05-08 08:32 46.01946 15.15276 39109 ft 456 kts 137°
2026-05-08 08:33 45.97638 15.21963 39112 ft 456 kts 137°
2026-05-08 08:33 45.93319 15.28640 39113 ft 455 kts 138°
2026-05-08 08:34 45.88998 15.35281 39117 ft 455 kts 138°
2026-05-08 08:34 45.84669 15.41918 39113 ft 455 kts 138°
2026-05-08 08:35 45.80357 15.48546 39118 ft 455 kts 138°
2026-05-08 08:35 45.76064 15.55120 39121 ft 454 kts 138°
2026-05-08 08:36 45.71853 15.61553 39124 ft 454 kts 138°
2026-05-08 08:36 45.67524 15.68148 39123 ft 454 kts 138°
2026-05-08 08:37 45.63196 15.74711 39127 ft 454 kts 138°
2026-05-08 08:37 45.58862 15.81272 39117 ft 454 kts 138°
2026-05-08 08:38 45.54537 15.87816 39120 ft 453 kts 138°
2026-05-08 08:38 45.50204 15.94350 39122 ft 453 kts 138°
2026-05-08 08:39 45.45882 16.00863 39122 ft 452 kts 138°
2026-05-08 08:39 45.41556 16.07366 39115 ft 452 kts 138°
2026-05-08 08:40 45.37224 16.13858 39123 ft 452 kts 138°
2026-05-08 08:40 45.32892 16.20322 39121 ft 452 kts 138°
2026-05-08 08:41 45.28558 16.26775 39122 ft 452 kts 138°
2026-05-08 08:41 45.24217 16.33220 39120 ft 452 kts 138°
2026-05-08 08:42 45.19871 16.39664 39123 ft 452 kts 138°
2026-05-08 08:42 45.15530 16.46088 39122 ft 452 kts 138°
2026-05-08 08:43 45.11234 16.52600 39122 ft 453 kts 136°
2026-05-08 08:43 45.07051 16.59262 39120 ft 453 kts 136°
2026-05-08 08:44 45.02865 16.65935 39114 ft 453 kts 136°
2026-05-08 08:44 44.98656 16.72541 39115 ft 452 kts 137°
2026-05-08 08:45 44.94428 16.79124 39115 ft 452 kts 137°
2026-05-08 08:45 44.90192 16.85695 39114 ft 452 kts 137°
2026-05-08 08:46 44.85968 16.92262 39113 ft 452 kts 137°
2026-05-08 08:46 44.81742 16.98816 39111 ft 452 kts 137°
2026-05-08 08:47 44.77505 17.05360 39112 ft 451 kts 137°
2026-05-08 08:47 44.73275 17.11897 39114 ft 451 kts 137°
2026-05-08 08:48 44.69051 17.18405 39113 ft 451 kts 137°
2026-05-08 08:48 44.64817 17.24903 39113 ft 451 kts 137°
2026-05-08 08:49 44.60575 17.31394 39111 ft 451 kts 137°
2026-05-08 08:49 44.56343 17.37859 39106 ft 450 kts 137°
2026-05-08 08:50 44.52118 17.44301 39105 ft 449 kts 137°
2026-05-08 08:50 44.47891 17.50747 39100 ft 449 kts 137°
2026-05-08 08:51 44.43666 17.57166 39097 ft 448 kts 137°
2026-05-08 08:51 44.39430 17.63580 39102 ft 448 kts 137°
2026-05-08 08:52 44.35200 17.69964 39098 ft 448 kts 137°
2026-05-08 08:52 44.30969 17.76337 39110 ft 448 kts 137°
2026-05-08 08:53 44.26730 17.82705 39108 ft 447 kts 137°
2026-05-08 08:53 44.22498 17.89049 39098 ft 447 kts 138°
2026-05-08 08:54 44.18261 17.95391 39096 ft 447 kts 138°
2026-05-08 08:54 44.14022 18.01720 39098 ft 446 kts 137°
2026-05-08 08:55 44.09784 18.08043 39107 ft 447 kts 138°
2026-05-08 08:55 44.05575 18.14306 39108 ft 447 kts 138°
2026-05-08 08:56 44.01327 18.20607 39106 ft 447 kts 138°
2026-05-08 08:56 43.97070 18.26908 39113 ft 447 kts 138°
2026-05-08 08:57 43.92813 18.33192 39112 ft 447 kts 138°
2026-05-08 08:57 43.88553 18.39466 39113 ft 447 kts 138°
2026-05-08 08:58 43.84285 18.45740 39112 ft 447 kts 138°
2026-05-08 08:58 43.80030 18.51992 39107 ft 446 kts 138°
2026-05-08 08:59 43.75762 18.58245 39108 ft 447 kts 138°
2026-05-08 08:59 43.71494 18.64482 39101 ft 447 kts 138°
2026-05-08 09:00 43.67219 18.70703 39099 ft 446 kts 138°
2026-05-08 09:00 43.62941 18.76920 39095 ft 446 kts 138°
2026-05-08 09:01 43.58675 18.83122 39093 ft 446 kts 138°
2026-05-08 09:01 43.54396 18.89305 39095 ft 445 kts 139°
2026-05-08 09:02 43.50126 18.95472 39089 ft 444 kts 138°
2026-05-08 09:02 43.45862 19.01624 39087 ft 444 kts 139°
2026-05-08 09:03 43.41589 19.07770 39077 ft 444 kts 139°
2026-05-08 09:03 43.37319 19.13894 39073 ft 444 kts 139°
2026-05-08 09:04 43.33045 19.20008 39070 ft 444 kts 139°
2026-05-08 09:04 43.28762 19.26124 39074 ft 444 kts 139°
2026-05-08 09:05 43.24488 19.32229 39066 ft 444 kts 139°
2026-05-08 09:05 43.20210 19.38322 39065 ft 444 kts 139°
2026-05-08 09:06 43.15912 19.44412 39062 ft 443 kts 139°
2026-05-08 09:06 43.11628 19.50487 39058 ft 443 kts 139°
2026-05-08 09:07 43.07340 19.56545 39058 ft 443 kts 139°
2026-05-08 09:07 43.03049 19.62590 39047 ft 443 kts 139°
2026-05-08 09:08 42.98759 19.68629 39047 ft 443 kts 139°
2026-05-08 09:08 42.95194 19.73643 39040 ft 443 kts 139°
2026-05-08 09:09 42.90894 19.79672 39039 ft 443 kts 139°
2026-05-08 09:09 42.88544 19.82958 39036 ft 444 kts 139°
2026-05-08 09:10 42.84918 19.88004 39044 ft 444 kts 139°
2026-05-08 09:10 42.80601 19.94028 38772 ft 445 kts 139°
2026-05-08 09:11 42.78435 19.97045 38016 ft 447 kts 139°
2026-05-08 09:11 42.76265 20.00069 37332 ft 446 kts 139°
2026-05-08 09:11 42.74149 20.03166 36634 ft 449 kts 134°
2026-05-08 09:11 42.72158 20.06465 35828 ft 452 kts 133°
2026-05-08 09:12 42.70164 20.09769 35161 ft 451 kts 133°
2026-05-08 09:12 42.68184 20.13047 34649 ft 447 kts 133°
2026-05-08 09:12 42.66219 20.16296 34088 ft 444 kts 133°
2026-05-08 09:12 42.64266 20.19522 33481 ft 440 kts 133°
2026-05-08 09:13 42.62325 20.22721 32939 ft 435 kts 132°
2026-05-08 09:13 42.60409 20.25876 32389 ft 432 kts 132°
2026-05-08 09:13 42.58528 20.28964 31855 ft 428 kts 132°
2026-05-08 09:13 42.56636 20.32064 31319 ft 425 kts 132°
2026-05-08 09:14 42.54733 20.35176 30794 ft 423 kts 132°
2026-05-08 09:14 42.52855 20.38237 30271 ft 420 kts 131°
2026-05-08 09:14 42.50995 20.41271 29696 ft 417 kts 131°
2026-05-08 09:14 42.49177 20.44243 29209 ft 412 kts 131°
2026-05-08 09:15 42.47361 20.47215 28708 ft 407 kts 131°
2026-05-08 09:15 42.45567 20.50148 28241 ft 402 kts 131°
2026-05-08 09:15 42.43790 20.53049 27775 ft 397 kts 132°
2026-05-08 09:15 42.42038 20.55909 27309 ft 393 kts 132°
2026-05-08 09:16 42.40303 20.58731 26874 ft 388 kts 132°
2026-05-08 09:16 42.38581 20.61520 26438 ft 384 kts 132°
2026-05-08 09:16 42.36878 20.64278 26004 ft 380 kts 132°
2026-05-08 09:16 42.35187 20.67018 25558 ft 377 kts 132°
2026-05-08 09:17 42.33508 20.69733 25100 ft 376 kts 133°
2026-05-08 09:17 42.31833 20.72439 24643 ft 374 kts 133°
2026-05-08 09:17 42.30170 20.75123 24175 ft 373 kts 133°
2026-05-08 09:17 42.28506 20.77808 23690 ft 373 kts 133°
2026-05-08 09:18 42.26844 20.80488 23147 ft 372 kts 133°
2026-05-08 09:18 42.25185 20.83163 22671 ft 370 kts 133°
2026-05-08 09:18 42.23538 20.85823 22165 ft 368 kts 133°
2026-05-08 09:18 42.21906 20.88454 21687 ft 366 kts 133°
2026-05-08 09:19 42.20271 20.91087 21217 ft 363 kts 134°
2026-05-08 09:19 42.18660 20.93680 20762 ft 359 kts 134°
2026-05-08 09:19 42.17062 20.96250 20292 ft 359 kts 134°
2026-05-08 09:19 42.15463 20.98816 19828 ft 357 kts 134°
2026-05-08 09:20 42.13862 21.01372 19369 ft 356 kts 135°
2026-05-08 09:20 42.12267 21.03914 18915 ft 355 kts 135°
2026-05-08 09:20 42.10769 21.06558 18465 ft 359 kts 124°
2026-05-08 09:20 42.09756 21.09642 17984 ft 361 kts 116°
2026-05-08 09:21 42.08851 21.12785 17482 ft 360 kts 115°
2026-05-08 09:21 42.07945 21.15921 16983 ft 357 kts 115°
2026-05-08 09:22 42.02496 21.33922 14297 ft 337 kts 115°
2026-05-08 09:23 42.01579 21.36809 13854 ft 334 kts 115°
2026-05-08 09:23 42.00561 21.39614 13377 ft 330 kts 120°
2026-05-08 09:23 41.99458 21.42295 12908 ft 327 kts 124°
2026-05-08 09:23 41.98156 21.44771 12440 ft 323 kts 126°
2026-05-08 09:24 41.96887 21.47246 11973 ft 321 kts 126°
2026-05-08 09:24 41.95623 21.49714 11526 ft 319 kts 126°
2026-05-08 09:24 41.94364 21.52150 11085 ft 316 kts 126°
2026-05-08 09:24 41.93109 21.54563 10639 ft 314 kts 125°
2026-05-08 09:25 41.91859 21.56945 10309 ft 309 kts 126°
2026-05-08 09:25 41.90633 21.59262 10073 ft 301 kts 126°
2026-05-08 09:25 41.89434 21.61522 9811 ft 293 kts 126°
2026-05-08 09:25 41.88266 21.63719 9541 ft 286 kts 126°
2026-05-08 09:26 41.87124 21.65876 9263 ft 280 kts 126°
2026-05-08 09:26 41.86000 21.68003 8878 ft 279 kts 126°
2026-05-08 09:26 41.84886 21.70122 8498 ft 277 kts 126°
2026-05-08 09:26 41.83783 21.72231 8123 ft 276 kts 125°
2026-05-08 09:27 41.82666 21.74302 7764 ft 273 kts 132°
2026-05-08 09:27 41.81171 21.75784 7415 ft 262 kts 155°
2026-05-08 09:27 41.79519 21.76639 7080 ft 249 kts 163°
2026-05-08 09:27 41.77878 21.77176 6741 ft 238 kts 171°
2026-05-08 09:28 41.76267 21.77444 6394 ft 228 kts 175°
2026-05-08 09:28 41.74726 21.77262 6041 ft 221 kts 198°
2026-05-08 09:28 41.73436 21.76230 5665 ft 216 kts 224°
2026-05-08 09:28 41.72657 21.74543 5295 ft 215 kts 252°
2026-05-08 09:29 41.72590 21.72576 4954 ft 214 kts 282°
2026-05-08 09:29 41.73234 21.70839 4729 ft 206 kts 309°
2026-05-08 09:29 41.74367 21.69739 4465 ft 198 kts 338°
2026-05-08 09:29 41.75668 21.69250 4218 ft 192 kts 346°
2026-05-08 09:30 41.76949 21.68810 3998 ft 186 kts 346°
2026-05-08 09:30 41.78178 21.68385 3769 ft 180 kts 346°
2026-05-08 09:30 41.79376 21.67971 3642 ft 177 kts 346°
2026-05-08 09:30 41.80563 21.67560 3597 ft 176 kts 346°
2026-05-08 09:31 41.81754 21.67148 3599 ft 177 kts 346°
2026-05-08 09:31 41.82945 21.66734 3443 ft 177 kts 346°
2026-05-08 09:31 41.84128 21.66324 3212 ft 175 kts 346°
2026-05-08 09:31 41.85290 21.65921 2966 ft 171 kts 347°
2026-05-08 09:32 41.86403 21.65535 2749 ft 158 kts 346°
2026-05-08 09:32 41.87427 21.65179 2468 ft 148 kts 347°
2026-05-08 09:32 41.88403 21.64841 2236 ft 142 kts 347°
2026-05-08 09:32 41.89349 21.64511 2037 ft 140 kts 347°
2026-05-08 09:33 41.90281 21.64187 1821 ft 138 kts 347°
2026-05-08 09:33 41.91204 21.63864 1619 ft 137 kts 347°
2026-05-08 09:33 41.92122 21.63547 1441 ft 136 kts 347°
2026-05-08 09:33 41.93044 21.63225 1243 ft 136 kts 347°
2026-05-08 09:34 41.93965 21.62907 1056 ft 137 kts 347°
2026-05-08 09:34 41.94889 21.62587 851 ft 137 kts 347°
2026-05-08 09:34 41.95787 21.62282 786 ft 117 kts 344°
2026-05-08 09:34 41.96296 21.62097 789 ft 48 kts 345°
2026-05-08 09:35 41.96487 21.62046 791 ft 12 kts 21°
2026-05-08 09:35 41.96502 21.62096 791 ft 8 kts 79°
2026-05-08 09:35 41.96519 21.62204 793 ft 15 kts 77°
2026-05-08 09:35 41.96489 21.62294 793 ft 11 kts 158°
2026-05-08 09:36 41.96402 21.62327 793 ft 19 kts 165°
2026-05-08 09:36 41.96261 21.62376 792 ft 22 kts 165°
2026-05-08 09:36 41.96133 21.62423 791 ft 13 kts 159°
2026-05-08 09:36 41.96128 21.62483 793 ft 5 kts 72°
2026-05-08 09:37 41.96136 21.62523 793 ft 4 kts 75°
2026-05-08 09:37 41.96142 21.62556 793 ft 3 kts 75°
2026-05-08 09:37 41.96144 21.62567 793 ft 0 kts 76°